This demonstration page uses our WeatherBlox Daily Observations layout. Learn more.

Left ArrowRight Arrow

Hourly Observations for January 30, 2016

Temp ( °F °C ) Dew Point ( °F °C ) Humidity (%) Winds ( mph kmh ) Pressure ( in mb ) Visibility ( mi km ) Precip ( " mm )
12:53 am 00:53 Clear 44 6.7 18 -7.8 35 35 Calm 29.83 1010 10 16 0.00 0.00
1:53 am 01:53 Clear 40 4.4 20 -6.7 45 45 SE 5 7 29.82 1010 10 16 0.00 0.00
2:53 am 02:53 Clear 39 3.9 20 -6.7 46 46 SE 7 11 29.82 1010 10 16 0.00 0.00
3:53 am 03:53 Clear 38 3.3 20 -6.7 48 48 Calm 29.80 1009 10 16 0.00 0.00
4:53 am 04:53 Clear 33 0.6 21 -6.1 61 61 Calm 29.80 1009 10 16 0.00 0.00
5:53 am 05:53 Clear 30 -1.1 21 -6.1 69 69 Calm 29.81 1010 10 16 0.00 0.00
6:53 am 06:53 Clear 29 -1.7 20 -6.7 69 69 Calm 29.84 1011 10 16 0.00 0.00
7:53 am 07:53 Sunny 28 -2.2 20 -6.7 72 72 NNW 8 13 29.86 1011 10 16 0.00 0.00
8:53 am 08:53 Sunny 36 2.2 22 -5.6 57 57 Calm 29.86 1011 10 16 0.00 0.00
9:53 am 09:53 Sunny 55 12.8 25 -3.9 31 31 SSW 7 11 29.83 1010 10 16 0.00 0.00
10:53 am 10:53 Sunny 67 19.4 20 -6.7 17 17 WSW 17 28 29.80 1009 10 16 0.00 0.00
11:53 am 11:53 Sunny 73 22.8 17 -8.3 12 12 W 26 43 29.77 1008 10 16 0.00 0.00
12:53 pm 12:53 Sunny 77 25 18 -7.8 11 11 WSW 29 46 29.74 1007 10 16 0.00 0.00
1:53 pm 13:53 Sunny 78 25.6 13 -10.6 8 8 W 31 50 29.70 1006 10 16 0.00 0.00
2:53 pm 14:53 Sunny 78 25.6 15 -9.4 9 9 WSW 29 46 29.67 1005 10 16 0.00 0.00
3:53 pm 15:53 Sunny 79 26.1 13 -10.6 8 8 WSW 22 35 29.65 1004 10 16 0.00 0.00
4:53 pm 16:53 Sunny 78 25.6 11 -11.7 8 8 W 21 33 29.66 1004 10 16 0.00 0.00
5:53 pm 17:53 Sunny 71 21.7 16 -8.9 12 12 WSW 9 15 29.69 1005 10 16 0.00 0.00
6:53 pm 18:53 Clear 67 19.4 20 -6.7 17 17 SW 9 15 29.70 1006 10 16 0.00 0.00
7:53 pm 19:53 Clear 62 16.7 21 -6.1 21 21 SW 12 19 29.72 1006 10 16 0.00 0.00
8:53 pm 20:53 Clear 57 13.9 22 -5.6 26 26 SW 10 17 29.71 1006 10 16 0.00 0.00
9:53 pm 21:53 Clear 57 13.9 21 -6.1 25 25 WSW 10 17 29.69 1006 10 16 0.00 0.00
10:53 pm 22:53 Clear 59 15 21 -6.1 23 23 WSW 14 22 29.67 1005 10 16 0.00 0.00
11:53 pm 23:53 Clear 57 13.9 22 -5.6 26 26 SW 14 22 29.66 1005 10 16 0.00 0.00

Powered by AerisWeather